Time,TemperatureF,DewpointF,PressureIn,WindDirection,WindDirectionDegrees,WindSpeedMPH,WindSpeedGustMPH,Humidity,HourlyPrecipIn,Conditions,Clouds,dailyrainin,SoftwareType,DateUTC
2013-08-06 15:40:00,81.9,53.1,30.03,North,353,0.0,6.0,37,0.00,,,2.45,meteohub,2013-08-06 19:40:00,
2013-08-06 15:41:00,82.4,55.6,30.03,North,353,5.0,6.0,40,0.00,,,2.45,meteohub,2013-08-06 19:41:00,
2013-08-06 15:46:00,81.3,59.2,30.06,North,353,3.0,6.0,47,0.00,,,2.45,meteohub,2013-08-06 19:46:00,
2013-08-06 15:51:00,80.6,61.3,30.06,North,353,0.0,6.0,52,0.00,,,2.45,meteohub,2013-08-06 19:51:00,
2013-08-06 15:56:00,80.8,63.7,30.06,North,353,0.0,6.0,56,0.00,,,2.45,meteohub,2013-08-06 19:56:00,
2013-08-06 16:03:00,80.6,63.5,30.03,North,353,6.0,6.0,56,0.00,,,2.45,meteohub,2013-08-06 20:03:00,
2013-08-06 16:08:00,80.8,63.7,30.03,North,353,3.0,6.0,56,0.00,,,2.45,meteohub,2013-08-06 20:08:00,
2013-08-06 16:13:00,81.0,64.2,30.03,North,353,3.0,6.0,57,0.00,,,2.45,meteohub,2013-08-06 20:13:00,
2013-08-06 16:18:00,80.8,63.7,30.03,North,353,4.0,6.0,56,0.00,,,2.45,meteohub,2013-08-06 20:18:00,
2013-08-06 16:23:00,80.4,64.2,30.03,North,353,6.0,6.0,58,0.00,,,2.45,meteohub,2013-08-06 20:23:00,
2013-08-06 16:28:00,80.2,64.6,30.03,North,353,4.0,8.0,59,0.00,,,2.45,meteohub,2013-08-06 20:28:00,
2013-08-06 16:32:00,80.2,65.1,30.03,North,353,4.0,8.0,60,0.00,,,2.45,meteohub,2013-08-06 20:32:00,
2013-08-06 16:38:00,80.1,64.9,30.03,North,353,4.0,7.0,60,0.00,,,2.45,meteohub,2013-08-06 20:38:00,
2013-08-06 16:43:00,80.1,64.9,30.03,North,353,3.0,6.0,60,0.00,,,2.45,meteohub,2013-08-06 20:43:00,
2013-08-06 16:48:00,80.2,65.1,30.03,North,353,5.0,6.0,60,0.00,,,2.45,meteohub,2013-08-06 20:48:00,
2013-08-06 16:53:00,80.4,65.7,30.03,North,353,3.0,6.0,61,0.00,,,2.45,meteohub,2013-08-06 20:53:00,
2013-08-06 16:58:00,80.4,65.7,30.03,North,353,0.0,6.0,61,0.00,,,2.45,meteohub,2013-08-06 20:58:00,
2013-08-06 17:03:00,80.6,65.5,30.03,North,353,4.0,6.0,60,0.00,,,2.45,meteohub,2013-08-06 21:03:00,
2013-08-06 17:08:00,81.0,65.8,30.03,North,353,2.0,6.0,60,0.00,,,2.45,meteohub,2013-08-06 21:08:00,
2013-08-06 17:13:00,81.0,65.3,30.03,North,353,6.0,6.0,59,0.00,,,2.45,meteohub,2013-08-06 21:13:00,
2013-08-06 17:18:00,81.0,65.8,30.03,North,353,4.0,7.0,60,0.00,,,2.45,meteohub,2013-08-06 21:18:00,
2013-08-06 17:23:00,80.8,65.1,30.03,North,353,4.0,7.0,59,0.00,,,2.45,meteohub,2013-08-06 21:23:00,
2013-08-06 17:28:00,80.6,64.9,30.03,North,353,6.0,7.0,59,0.00,,,2.45,meteohub,2013-08-06 21:28:00,
2013-08-06 17:33:00,80.6,65.5,30.03,North,353,8.0,8.0,60,0.00,,,2.45,meteohub,2013-08-06 21:33:00,
2013-08-06 17:38:00,80.6,66.4,30.03,North,353,5.0,9.0,62,0.00,,,2.45,meteohub,2013-08-06 21:38:00,
2013-08-06 17:43:00,80.4,66.7,30.03,North,353,6.0,9.0,63,0.00,,,2.45,meteohub,2013-08-06 21:43:00,
2013-08-06 17:48:00,80.2,66.6,30.03,North,353,4.0,8.0,63,0.00,,,2.45,meteohub,2013-08-06 21:48:00,
2013-08-06 17:53:00,80.2,66.6,30.03,North,353,4.0,8.0,63,0.00,,,2.45,meteohub,2013-08-06 21:53:00,
2013-08-06 17:58:00,80.2,66.6,30.03,North,353,5.0,8.0,63,0.00,,,2.45,meteohub,2013-08-06 21:58:00,
2013-08-06 18:03:00,80.1,66.4,30.03,North,353,5.0,8.0,63,0.00,,,2.45,meteohub,2013-08-06 22:03:00,
2013-08-06 18:08:00,79.9,66.6,30.03,North,353,8.0,8.0,64,0.00,,,2.45,meteohub,2013-08-06 22:08:00,
2013-08-06 18:13:00,79.5,66.2,30.03,North,353,8.0,8.0,64,0.00,,,2.45,meteohub,2013-08-06 22:13:00,
2013-08-06 18:18:00,79.2,65.8,30.06,North,353,4.0,11.0,64,0.00,,,2.45,meteohub,2013-08-06 22:18:00,
2013-08-06 18:23:00,79.0,66.2,30.06,North,353,5.0,11.0,65,0.00,,,2.45,meteohub,2013-08-06 22:23:00,
2013-08-06 18:28:00,78.8,66.6,30.06,North,353,5.0,9.0,66,0.00,,,2.45,meteohub,2013-08-06 22:28:00,
2013-08-06 18:33:00,78.4,66.2,30.06,North,353,4.0,9.0,66,0.00,,,2.45,meteohub,2013-08-06 22:33:00,
2013-08-06 18:38:00,78.4,66.2,30.06,North,353,4.0,8.0,66,0.00,,,2.45,meteohub,2013-08-06 22:38:00,
2013-08-06 18:43:00,78.1,66.2,30.06,North,353,3.0,9.0,67,0.00,,,2.45,meteohub,2013-08-06 22:43:00,
2013-08-06 18:48:00,77.9,66.6,30.06,North,353,4.0,9.0,68,0.00,,,2.45,meteohub,2013-08-06 22:48:00,
2013-08-06 18:53:00,77.7,66.4,30.06,North,353,4.0,8.0,68,0.00,,,2.45,meteohub,2013-08-06 22:53:00,
2013-08-06 18:58:00,77.5,66.6,30.06,North,353,6.0,8.0,69,0.00,,,2.45,meteohub,2013-08-06 22:58:00,
2013-08-06 19:03:00,77.4,66.4,30.06,North,353,3.0,6.0,69,0.00,,,2.45,meteohub,2013-08-06 23:03:00,
2013-08-06 19:08:00,77.2,66.2,30.06,North,353,3.0,8.0,69,0.00,,,2.45,meteohub,2013-08-06 23:08:00,
2013-08-06 19:13:00,77.2,66.6,30.06,North,353,4.0,8.0,70,0.00,,,2.45,meteohub,2013-08-06 23:13:00,
2013-08-06 19:19:00,77.0,66.9,30.06,North,353,0.0,8.0,71,0.00,,,2.45,meteohub,2013-08-06 23:19:00,
2013-08-06 19:24:00,77.0,67.3,30.06,North,353,4.0,6.0,72,0.00,,,2.45,meteohub,2013-08-06 23:24:00,
2013-08-06 19:29:00,77.0,67.6,30.06,North,353,6.0,8.0,73,0.00,,,2.45,meteohub,2013-08-06 23:29:00,
2013-08-06 19:34:00,76.8,67.8,30.06,North,353,6.0,8.0,74,0.00,,,2.45,meteohub,2013-08-06 23:34:00,
2013-08-06 19:39:00,76.6,67.6,30.06,North,353,3.0,8.0,74,0.00,,,2.45,meteohub,2013-08-06 23:39:00,
2013-08-06 19:44:00,76.6,68.2,30.06,North,353,3.0,8.0,75,0.00,,,2.45,meteohub,2013-08-06 23:44:00,
2013-08-06 19:49:00,76.5,68.0,30.06,North,353,5.0,8.0,75,0.00,,,2.45,meteohub,2013-08-06 23:49:00,
2013-08-06 19:54:00,76.5,68.4,30.06,North,353,3.0,8.0,76,0.00,,,2.45,meteohub,2013-08-06 23:54:00,
2013-08-06 19:59:00,76.5,68.4,30.06,North,353,5.0,6.0,76,0.00,,,2.45,meteohub,2013-08-06 23:59:00,
2013-08-06 20:04:00,76.3,68.2,30.06,North,353,6.0,8.0,76,0.00,,,2.45,meteohub,2013-08-07 00:04:00,
2013-08-06 20:09:00,76.1,68.4,30.06,North,353,3.0,8.0,77,0.00,,,0.00,meteohub,2013-08-07 00:09:00,
2013-08-06 20:14:00,76.1,68.4,30.06,North,353,6.0,8.0,77,0.00,,,0.00,meteohub,2013-08-07 00:14:00,
2013-08-06 20:19:00,75.9,68.5,30.06,North,353,4.0,8.0,78,0.00,,,0.00,meteohub,2013-08-07 00:19:00,
2013-08-06 20:24:00,75.9,68.5,30.06,North,353,3.0,6.0,78,0.00,,,0.00,meteohub,2013-08-07 00:24:00,
2013-08-06 20:29:00,75.9,68.9,30.06,North,353,4.0,6.0,79,0.00,,,0.00,meteohub,2013-08-07 00:29:00,
2013-08-06 20:34:00,75.7,68.7,30.06,North,353,5.0,8.0,79,0.00,,,0.00,meteohub,2013-08-07 00:34:00,
2013-08-06 20:39:00,75.7,68.7,30.06,North,353,6.0,8.0,79,0.00,,,0.00,meteohub,2013-08-07 00:39:00,
2013-08-06 20:44:00,75.6,68.5,30.06,North,353,4.0,8.0,79,0.00,,,0.00,meteohub,2013-08-07 00:44:00,
2013-08-06 20:49:00,75.6,68.5,30.06,North,353,4.0,8.0,79,0.00,,,0.00,meteohub,2013-08-07 00:49:00,
2013-08-06 20:54:00,75.4,68.7,30.06,North,353,5.0,8.0,80,0.00,,,0.00,meteohub,2013-08-07 00:54:00,
2013-08-06 20:59:00,75.4,68.7,30.09,North,353,6.0,8.0,80,0.00,,,0.00,meteohub,2013-08-07 00:59:00,
2013-08-06 21:04:00,75.2,68.5,30.09,North,353,3.0,8.0,80,0.00,,,0.00,meteohub,2013-08-07 01:04:00,
2013-08-06 21:09:00,75.2,68.5,30.09,North,353,0.0,8.0,80,0.00,,,0.00,meteohub,2013-08-07 01:09:00,
2013-08-06 21:14:00,75.0,68.7,30.09,North,353,3.0,8.0,81,0.00,,,0.00,meteohub,2013-08-07 01:14:00,
2013-08-06 21:19:00,75.0,68.7,30.09,North,353,8.0,8.0,81,0.00,,,0.00,meteohub,2013-08-07 01:19:00,
2013-08-06 21:24:00,75.0,69.1,30.09,North,353,6.0,6.0,82,0.00,,,0.00,meteohub,2013-08-07 01:24:00,
2013-08-06 21:29:00,74.8,68.9,30.09,North,353,5.0,11.0,82,0.00,,,0.00,meteohub,2013-08-07 01:29:00,
2013-08-06 21:34:00,74.8,68.5,30.09,North,353,6.0,12.0,81,0.00,,,0.00,meteohub,2013-08-07 01:34:00,
2013-08-06 21:39:00,74.7,68.4,30.09,North,353,4.0,12.0,81,0.00,,,0.00,meteohub,2013-08-07 01:39:00,
2013-08-06 21:44:00,74.7,68.4,30.09,North,353,5.0,8.0,81,0.00,,,0.00,meteohub,2013-08-07 01:44:00,
2013-08-06 21:49:00,74.7,68.4,30.09,North,353,5.0,8.0,81,0.00,,,0.00,meteohub,2013-08-07 01:49:00,
2013-08-06 21:54:00,74.5,68.5,30.09,North,353,3.0,8.0,82,0.00,,,0.00,meteohub,2013-08-07 01:54:00,
2013-08-06 21:59:00,74.3,68.4,30.09,North,353,6.0,8.0,82,0.00,,,0.00,meteohub,2013-08-07 01:59:00,
2013-08-06 22:04:00,74.3,68.4,30.09,North,353,5.0,6.0,82,0.00,,,0.00,meteohub,2013-08-07 02:04:00,
2013-08-06 22:10:00,74.3,68.7,30.09,North,353,4.0,6.0,83,0.00,,,0.00,meteohub,2013-08-07 02:10:00,
2013-08-06 22:15:00,74.1,68.5,30.12,North,353,4.0,6.0,83,0.00,,,0.00,meteohub,2013-08-07 02:15:00,
2013-08-06 22:20:00,74.1,68.5,30.12,North,353,4.0,6.0,83,0.00,,,0.00,meteohub,2013-08-07 02:20:00,
2013-08-06 22:25:00,74.1,68.9,30.12,North,353,3.0,6.0,84,0.00,,,0.00,meteohub,2013-08-07 02:25:00,
2013-08-06 22:30:00,74.1,68.9,30.12,North,353,3.0,6.0,84,0.00,,,0.00,meteohub,2013-08-07 02:30:00,
2013-08-06 22:35:00,73.9,68.7,30.12,North,353,4.0,6.0,84,0.00,,,0.00,meteohub,2013-08-07 02:35:00,
2013-08-06 22:40:00,73.9,68.7,30.12,North,353,4.0,5.0,84,0.00,,,0.00,meteohub,2013-08-07 02:40:00,
2013-08-06 22:45:00,73.9,68.7,30.12,North,353,3.0,5.0,84,0.00,,,0.00,meteohub,2013-08-07 02:45:00,
2013-08-06 22:50:00,73.8,68.9,30.12,North,353,3.0,5.0,85,0.00,,,0.00,meteohub,2013-08-07 02:50:00,
2013-08-06 22:55:00,73.8,68.9,30.12,North,353,3.0,6.0,85,0.04,,,0.04,meteohub,2013-08-07 02:55:00,
2013-08-06 23:00:00,73.6,68.7,30.12,North,353,2.0,6.0,85,0.04,,,0.04,meteohub,2013-08-07 03:00:00,
2013-08-06 23:05:00,73.6,69.1,30.12,North,353,0.0,4.0,86,0.04,,,0.04,meteohub,2013-08-07 03:05:00,
2013-08-06 23:10:00,73.6,69.1,30.12,North,353,3.0,4.0,86,0.04,,,0.04,meteohub,2013-08-07 03:10:00,
2013-08-06 23:15:00,73.4,69.3,30.09,North,353,0.0,4.0,87,0.08,,,0.08,meteohub,2013-08-07 03:15:00,
2013-08-06 23:20:00,73.4,69.3,30.09,North,353,0.0,4.0,87,0.08,,,0.08,meteohub,2013-08-07 03:20:00,
2013-08-06 23:25:00,73.4,69.3,30.09,North,353,0.0,4.0,87,0.08,,,0.08,meteohub,2013-08-07 03:25:00,
2013-08-06 23:30:00,73.4,69.6,30.12,North,353,3.0,4.0,88,0.08,,,0.08,meteohub,2013-08-07 03:30:00,
2013-08-06 23:35:00,73.2,69.4,30.12,North,353,3.0,4.0,88,0.13,,,0.13,meteohub,2013-08-07 03:35:00,
2013-08-06 23:40:00,73.2,69.8,30.12,North,353,0.0,4.0,89,0.13,,,0.13,meteohub,2013-08-07 03:40:00,
2013-08-06 23:45:00,73.2,69.8,30.09,North,353,0.0,4.0,89,0.17,,,0.17,meteohub,2013-08-07 03:45:00,
2013-08-06 23:50:00,73.0,69.6,30.09,North,353,0.0,4.0,89,0.12,,,0.17,meteohub,2013-08-07 03:50:00,
2013-08-06 23:55:00,73.0,69.6,30.09,North,353,0.0,0.0,89,0.17,,,0.21,meteohub,2013-08-07 03:55:00,